{"data":{"norad_id":66505,"intl_designator":"2025-263W","name":"STARLINK-34766","alt_names":[],"object_type":"PAYLOAD","status":"ACTIVE","operator":null,"country":"US","launch_date":"2025-11-15","launch_site_code":"AFETR","launch_vehicle":null,"mission":null,"orbit_class":"UNKNOWN","rcs_meters":null,"size_class":null,"mass_kg":null,"dimensions":null,"purposes":["comms"],"wikipedia_slug":null,"has_3d_model":false,"image_url":null,"decayed_at":null,"tle_current":{"epoch":"2026-05-25T01:30:27.272160Z","epoch_age_seconds":70434,"freshness":"FRESH","line1":"1 66505U 25263W   26145.06281565  .00016163  00000+0  59555-3 0  9999","line2":"2 66505  43.0029 278.9925 0000827   0.0170   0.0682 15.27581294 30585","mean_motion":15.27581294,"eccentricity":8.27e-5,"inclination_deg":43.0029,"raan_deg":278.9925,"arg_perigee_deg":0.017,"mean_anomaly_deg":0.0682,"bstar":0.00059555,"rev_number":3058,"period_min":94.26666886116,"perigee_km":482.47780157117,"apogee_km":483.61264111058,"semimajor_km":6861.1822213409,"source":"CELESTRAK","updated_at":"2026-05-25T13:38:21.246360Z"}}}